Location: Thompson
(55.7500°N, 97.8670°W)
Time: 06:26:10
(UTC-06:00)

Amateur Radio Satellites - All Passes

Search period start: 08 February 2016 05:56
Search period end: 09 February 2016 05:56
Location: Thompson, 55.7500°N, 97.8670°W

Satellite Date Start Highest point End Downlink Frequencies (MHz)
Time Altitude Azimuth
BRITE-PL 08 Feb 06:02:01 06:04:53 15° 82° (E) 06:07:39 437.365/2234.400
STRAND 1 08 Feb 06:05:17 06:10:18 59° 67° (ENE) 06:15:23 437.568
Cosmos 2504 08 Feb 06:08:51 06:17:34 89° 280° (W) 06:26:34 435.465 / 435.565
CUTE-I 08 Feb 06:10:29 06:15:09 29° 92° (E) 06:19:48 437.470
CUBESAT XI-V 08 Feb 06:15:34 06:19:37 28° 268° (W) 06:23:43 437.345
Cubesat XI-IV 08 Feb 06:23:26 06:28:23 35° 95° (E) 06:33:18 437.490
ITAMSAT 1 08 Feb 06:29:46 06:30:58 11° 322° (NW) 06:32:09 435.822/435.867
M-CUBED/EXP-1 PRIME 08 Feb 06:35:17 06:37:49 21° 307° (NW) 06:40:23 437.505
LilacSat-2 08 Feb 06:35:18 06:38:49 35° 97° (E) 06:42:19 437.200
AUBIESAT-1 08 Feb 06:46:57 06:49:26 19° 308° (NW) 06:51:57 437.475
CUSAT 1 08 Feb 06:48:53 06:51:31 12° 335° (NNW) 06:54:03 437.405
GONETS M04 08 Feb 06:55:59 06:56:26 10° 58° (ENE) 06:56:52
DANDE 08 Feb 07:03:08 07:07:31 15° 334° (NNW) 07:11:51 436.750
AO-7 08 Feb 07:03:43 07:11:02 36° 316° (NW) 07:18:21 29.400- 29.500
PRISM 08 Feb 07:06:12 07:10:21 69° 71° (ENE) 07:14:33 437.425
DOVE 4 08 Feb 07:09:24 07:12:02 16° 85° (E) 07:14:35 437.250
SO-50 08 Feb 07:12:56 07:17:54 85° 135° (SE) 07:22:53 436.795
HORYU 2 08 Feb 07:12:57 07:15:45 17° 309° (NW) 07:18:32 437.375
YUBILEINY 08 Feb 07:15:21 07:21:42 21° 319° (NW) 07:28:06 435.215
GOMX 1 08 Feb 07:17:26 07:21:36 31° 93° (E) 07:25:31 467.674
CUTE 1.7 + AOD 2 08 Feb 07:31:56 07:33:37 12° 84° (E) 07:35:16 437.475
HO-68 08 Feb 07:37:26 07:42:54 22° 86° (E) 07:48:20 435.675
BRITE-PL 08 Feb 07:39:14 07:44:21 82° 106° (ESE) 07:48:59 437.365/2234.400
SEEDS 08 Feb 07:41:57 07:43:27 12° 83° (E) 07:44:56 437.485
STRAND 1 08 Feb 07:45:26 07:49:51 28° 267° (W) 07:54:18 437.568
CUTE-I 08 Feb 07:50:17 07:55:36 62° 293° (WNW) 08:00:54 437.470
AAUSAT CUBESAT 2 08 Feb 08:01:58 08:03:24 11° 84° (E) 08:04:49 437.432
Cubesat XI-IV 08 Feb 08:03:28 08:08:41 51° 296° (WNW) 08:13:52 437.490
Cosmos 2504 08 Feb 08:04:36 08:12:15 32° 307° (NW) 08:20:04 435.465 / 435.565
LilacSat-2 08 Feb 08:09:47 08:13:07 30° 296° (WNW) 08:16:26 437.200
ANTELSAT 08 Feb 08:09:52 08:12:20 15° 52° (NE) 08:14:48 437.575/2403.000
CANX-2 08 Feb 08:15:10 08:18:59 30° 94° (E) 08:22:46 2200.000
TIGRISAT 08 Feb 08:17:10 08:19:51 16° 53° (NE) 08:22:32 435.000
CINEMA 3 08 Feb 08:17:33 08:20:58 24° 92° (E) 08:24:21 145.822/145.860
O/OREOS (USA 219) 08 Feb 08:22:45 08:26:21 24° 105° (ESE) 08:29:59 437.305
CUBEBUG 2 08 Feb 08:37:54 08:40:33 16° 88° (E) 08:43:12 437.445
GONETS M04 08 Feb 08:42:46 08:50:35 40° 84° (E) 08:58:29
UWE-3 08 Feb 08:43:02 08:45:16 14° 86° (E) 08:47:30 435.000/436.395/437.385
PRISM 08 Feb 08:43:13 08:46:10 18° 270° (W) 08:49:08 437.425
DOVE 4 08 Feb 08:46:01 08:50:27 83° 288° (WNW) 08:54:40 437.250
QB50P1 08 Feb 08:46:12 08:47:18 11° 47° (NE) 08:48:23 145.935-145.965
Oscar 11 08 Feb 08:51:00 08:53:43 16° 87° (E) 08:56:24 145.826/435.025
DANDE 08 Feb 08:53:26 08:54:41 10° 2° (N) 08:55:57 436.750
SO-50 08 Feb 08:54:15 08:58:54 38° 339° (NNW) 09:03:31 436.795
GOMX 1 08 Feb 08:55:27 08:59:54 43° 295° (WNW) 09:04:03 467.674
AO-7 08 Feb 08:56:28 09:01:37 18° 342° (NNW) 09:06:46 29.400- 29.500
UNISAT 6 08 Feb 08:59:34 09:03:27 34° 63° (ENE) 09:07:19 437.425
COMPASS 1 08 Feb 09:05:00 09:09:06 46° 99° (E) 09:13:10 437.405
CUTE 1.7 + AOD 2 08 Feb 09:05:57 09:10:16 75° 105° (ESE) 09:14:33 437.475
SEEDS 08 Feb 09:15:41 09:19:57 73° 102° (ESE) 09:24:14 437.485
BRITE-PL 08 Feb 09:18:25 09:22:14 22° 307° (NW) 09:25:52 437.365/2234.400
YUBILEINY 08 Feb 09:21:06 09:23:16 11° 353° (N) 09:25:27 435.215
Cosmos 2499 08 Feb 09:24:02 09:31:40 35° 81° (E) 09:39:22 435.465 / 435.565
HO-68 08 Feb 09:24:29 09:31:46 81° 108° (ESE) 09:39:00 435.675
DELFI C3 08 Feb 09:29:39 09:32:40 20° 90° (E) 09:35:39 145.870
CUTE-I 08 Feb 09:31:26 09:34:45 17° 315° (NW) 09:38:04 437.470
POLYITAN 1 08 Feb 09:35:10 09:38:34 24° 59° (ENE) 09:41:58 437.675
AAUSAT CUBESAT 2 08 Feb 09:35:28 09:39:42 73° 104° (ESE) 09:43:54 437.432
QB50P2 08 Feb 09:35:51 09:39:19 25° 59° (ENE) 09:42:46 145.880/145.840
ZACube-1 08 Feb 09:40:25 09:44:11 32° 95° (E) 09:48:00 437.345
ANTELSAT 08 Feb 09:44:08 09:48:26 78° 73° (ENE) 09:52:44 437.575/2403.000
Cubesat XI-IV 08 Feb 09:44:53 09:47:41 15° 317° (NW) 09:50:30 437.490
BUGSAT 1 08 Feb 09:49:01 09:51:57 19° 56° (NE) 09:54:53 437.445
FUNcube-1 08 Feb 09:50:24 09:54:19 37° 97° (E) 09:58:15 145.935
CANX-2 08 Feb 09:50:56 09:54:59 42° 294° (WNW) 09:59:03 2200.000
TIGRISAT 08 Feb 09:51:41 09:55:59 86° 74° (ENE) 10:00:17 435.000
CINEMA 3 08 Feb 09:54:22 09:58:26 50° 292° (WNW) 10:02:27 145.822/145.860
O/OREOS (USA 219) 08 Feb 10:00:56 10:05:24 63° 306° (NW) 10:09:56 437.305
Cosmos 2504 08 Feb 10:05:09 10:09:19 14° 337° (NNW) 10:13:29 435.465 / 435.565
POPSAT HIP 1 08 Feb 10:05:27 10:09:24 39° 65° (ENE) 10:13:22 437.405
NANOSAT C BR1 08 Feb 10:11:16 10:15:16 43° 66° (ENE) 10:19:17 145.865
DUCHIFAT 1 08 Feb 10:13:31 10:17:32 43° 66° (ENE) 10:21:32 145.980
CUBEBUG 2 08 Feb 10:13:34 10:17:45 77° 287° (WNW) 10:21:56 437.445
HUMSAT D 08 Feb 10:15:15 10:18:42 25° 93° (E) 10:22:11 437.325/437.525
Oscar 19 08 Feb 10:15:47 10:16:51 11° 39° (NE) 10:17:56 437.125/150
QB50P1 08 Feb 10:18:06 10:22:13 50° 67° (ENE) 10:26:20 145.935-145.965
UWE-3 08 Feb 10:18:12 10:22:23 89° 296° (WNW) 10:26:37 435.000/436.395/437.385
CUSAT 1 08 Feb 10:20:13 10:23:54 14° 32° (NNE) 10:27:14 437.405
DOVE 4 08 Feb 10:24:49 10:27:31 16° 309° (NW) 10:30:08 437.250
Oscar 11 08 Feb 10:26:05 10:30:28 84° 285° (WNW) 10:34:49 145.826/435.025
AO-85 08 Feb 10:34:47 10:38:19 18° 111° (ESE) 10:41:53 145.980
GOMX 1 08 Feb 10:36:01 10:36:48 10° 318° (NW) 10:37:37 467.674
UNISAT 6 08 Feb 10:36:07 10:40:10 38° 263° (W) 10:44:12 437.425
SO-50 08 Feb 10:36:09 10:40:31 30° 4° (N) 10:44:49 436.795
DX 1 08 Feb 10:36:33 10:37:49 11° 84° (E) 10:39:04 434.975-435.025
DANDE 08 Feb 10:36:57 10:41:42 16° 30° (NNE) 10:46:02 436.750
AIST 1 08 Feb 10:38:10 10:41:56 28° 89° (E) 10:45:43
GONETS M04 08 Feb 10:38:23 10:47:02 67° 288° (WNW) 10:55:47
COMPASS 1 08 Feb 10:40:54 10:44:33 28° 299° (WNW) 10:48:10 437.405
CUTE 1.7 + AOD 2 08 Feb 10:42:33 10:45:41 20° 304° (WNW) 10:48:49 437.475
AO-7 08 Feb 10:46:45 10:51:25 16° 10° (N) 10:56:05 29.400- 29.500
SEEDS 08 Feb 10:52:09 10:55:16 20° 303° (WNW) 10:58:24 437.485
JAS-2 08 Feb 10:52:14 10:57:22 21° 45° (NE) 11:02:09 435.910
DELFI C3 08 Feb 11:03:57 11:07:58 60° 289° (WNW) 11:11:57 145.870
PCSat 08 Feb 11:04:37 11:08:34 21° 109° (ESE) 11:12:31 145.827
POLYITAN 1 08 Feb 11:09:57 11:14:08 57° 258° (WSW) 11:18:20 437.675
QB50P2 08 Feb 11:10:42 11:14:53 55° 259° (W) 11:19:05 145.880/145.840
AAUSAT CUBESAT 2 08 Feb 11:11:44 11:14:48 20° 303° (WNW) 11:17:51 437.432
HO-68 08 Feb 11:12:40 11:18:57 34° 311° (NW) 11:25:13 435.675
Cosmos 2499 08 Feb 11:15:18 11:24:09 79° 284° (WNW) 11:33:05 435.465 / 435.565
ZACube-1 08 Feb 11:16:43 11:20:35 38° 295° (WNW) 11:24:30 437.345
YUBILEINY 08 Feb 11:20:37 11:25:25 15° 28° (NNE) 11:30:12 435.215
BUGSAT 1 08 Feb 11:22:42 11:26:55 79° 255° (WSW) 11:31:06 437.445
VELOX 1 08 Feb 11:22:54 11:26:39 26° 93° (E) 11:30:23 145.980
ANTELSAT 08 Feb 11:22:55 11:25:44 17° 272° (W) 11:28:33 437.575/2403.000
FUNcube-1 08 Feb 11:26:50 11:30:34 33° 297° (WNW) 11:34:21 145.935
TIGRISAT 08 Feb 11:30:48 11:33:20 15° 273° (W) 11:35:50 435.000
RS-15 08 Feb 11:31:36 11:41:07 34° 106° (ESE) 11:51:03 29.354- 29.394
CINEMA 3 08 Feb 11:34:02 11:34:41 10° 313° (NW) 11:35:21 145.822/145.860
50 SAT 08 Feb 11:37:46 11:41:22 39° 98° (E) 11:44:57 437.505
AISAT 08 Feb 11:39:03 11:43:11 36° 97° (E) 11:47:16 437.250
POPSAT HIP 1 08 Feb 11:41:30 11:45:19 32° 265° (W) 11:49:08 437.405
O/OREOS (USA 219) 08 Feb 11:42:31 11:45:44 19° 330° (NNW) 11:48:58 437.305
NANOSAT C BR1 08 Feb 11:47:29 11:51:11 29° 266° (W) 11:54:54 145.865
DUCHIFAT 1 08 Feb 11:49:44 11:53:25 29° 266° (W) 11:57:07 145.980
Oscar 19 08 Feb 11:50:10 11:54:54 37° 60° (ENE) 11:59:38 437.125/150
HUMSAT D 08 Feb 11:50:37 11:54:37 49° 292° (WNW) 11:58:38 437.325/437.525
CUBEBUG 2 08 Feb 11:51:30 11:53:46 14° 308° (NW) 11:56:01 437.445
ESTCUBE 1 08 Feb 11:53:42 11:58:11 52° 100° (E) 12:02:38 437.505/2401.250
QB50P1 08 Feb 11:54:45 11:58:16 25° 267° (W) 12:01:47 145.935-145.965
UWE-3 08 Feb 11:55:43 11:58:21 16° 306° (NW) 12:00:58 435.000/436.395/437.385
UKube-1 08 Feb 12:01:40 12:05:55 49° 101° (E) 12:10:06 .
CUSAT 1 08 Feb 12:02:02 12:08:35 40° 59° (ENE) 12:13:42 437.405
Oscar 11 08 Feb 12:03:16 12:06:00 17° 307° (NW) 12:08:45 145.826/435.025
CUBEBUG 1 08 Feb 12:03:51 12:08:09 50° 100° (E) 12:12:23 437.445
Cosmos 2504 08 Feb 12:05:32 12:07:57 11° 10° (N) 12:10:22 435.465 / 435.565
Gurwin Techsat 1B 08 Feb 12:07:44 12:12:03 26° 54° (NE) 12:16:22 435.225
DX 1 08 Feb 12:10:31 12:14:53 67° 104° (ESE) 12:19:14 434.975-435.025
AO-85 08 Feb 12:12:37 12:18:02 67° 132° (SE) 12:23:30 145.980
SPROUT 08 Feb 12:14:10 12:17:52 27° 93° (E) 12:21:32 437.525
AIST 1 08 Feb 12:15:09 12:19:23 45° 289° (WNW) 12:23:39
SO-50 08 Feb 12:17:14 12:22:00 47° 27° (NNE) 12:26:40 436.795
DANDE 08 Feb 12:19:51 12:27:19 40° 57° (ENE) 12:33:24 436.750
TISAT 1 08 Feb 12:30:24 12:33:14 17° 89° (E) 12:36:03 437.305
JAS-2 08 Feb 12:34:02 12:41:25 63° 66° (ENE) 12:48:06 435.910
AO-7 08 Feb 12:34:56 12:41:40 28° 36° (NE) 12:48:23 29.400- 29.500
GONETS M04 08 Feb 12:39:13 12:45:53 24° 315° (NW) 12:52:37
DELFI C3 08 Feb 12:40:39 12:42:08 12° 310° (NW) 12:43:36 145.870
PCSat 08 Feb 12:45:49 12:51:16 84° 131° (SE) 12:56:45 145.827
ITAMSAT 1 08 Feb 12:55:20 12:59:56 33° 58° (ENE) 13:04:34 435.822/435.867
VELOX 1 08 Feb 12:59:05 13:03:25 52° 293° (WNW) 13:07:43 145.980
HO-68 08 Feb 13:01:11 13:04:43 14° 335° (NNW) 13:08:13 435.675
BUGSAT 1 08 Feb 13:01:16 13:03:02 12° 275° (W) 13:04:46 437.445
Cosmos 2499 08 Feb 13:11:28 13:18:51 28° 310° (NW) 13:26:16 435.465 / 435.565
50 SAT 08 Feb 13:12:04 13:15:19 27° 297° (WNW) 13:18:34 437.505
AISAT 08 Feb 13:15:37 13:19:44 38° 297° (WNW) 13:23:48 437.250
YUBILEINY 08 Feb 13:17:26 13:25:36 38° 58° (ENE) 13:33:41 435.215
SWISSCUBE 08 Feb 13:18:07 13:20:38 14° 85° (E) 13:23:09 437.505
O/OREOS (USA 219) 08 Feb 13:26:00 13:27:01 11° 355° (N) 13:28:03 437.305
HUMSAT D 08 Feb 13:28:56 13:29:22 10° 313° (NW) 13:29:49 437.325/437.525
Oscar 19 08 Feb 13:29:09 13:34:10 48° 261° (W) 13:39:11 437.125/150
ESTCUBE 1 08 Feb 13:30:53 13:34:49 29° 301° (WNW) 13:38:43 437.505/2401.250
Cosmos 2491 08 Feb 13:36:43 13:41:30 16° 66° (ENE) 13:46:17 435.465 / 435.565
UKube-1 08 Feb 13:38:05 13:41:48 28° 301° (WNW) 13:45:30 .
CUBEBUG 1 08 Feb 13:40:30 13:44:17 28° 300° (WNW) 13:48:01 437.445
RS-15 08 Feb 13:40:43 13:52:04 84° 134° (SE) 14:04:05 29.354- 29.394
CUSAT 1 08 Feb 13:44:35 13:51:10 52° 267° (W) 13:56:13 437.405
Gurwin Techsat 1B 08 Feb 13:46:15 13:51:34 77° 255° (WSW) 13:56:56 435.225
DX 1 08 Feb 13:47:20 13:50:44 22° 304° (NW) 13:54:07 434.975-435.025
SPROUT 08 Feb 13:49:57 13:54:04 46° 293° (WNW) 13:58:09 437.525
ITUPSAT 1 08 Feb 13:53:08 13:57:03 24° 91° (E) 14:00:56 437.325
AO-85 08 Feb 13:53:36 13:58:55 47° 334° (NNW) 14:04:11 145.980
SO-50 08 Feb 13:57:54 14:02:42 56° 230° (SW) 14:07:20 436.795
Cosmos 2504 08 Feb 13:59:14 14:05:50 22° 42° (NE) 14:12:12 435.465 / 435.565
BEESAT 08 Feb 14:02:35 14:06:45 28° 93° (E) 14:10:53 436.000
DANDE 08 Feb 14:03:05 14:10:53 65° 264° (W) 14:17:02 436.750
TISAT 1 08 Feb 14:05:14 14:09:26 73° 288° (WNW) 14:13:36 437.305
JAS-2 08 Feb 14:19:46 14:26:46 40° 266° (W) 14:33:11 435.910
M-CUBED/EXP-1 PRIME 08 Feb 14:20:10 14:23:21 32° 58° (ENE) 14:26:24 437.505
AO-7 08 Feb 14:24:58 14:33:16 70° 61° (ENE) 14:41:34 29.400- 29.500
PCSat 08 Feb 14:30:13 14:35:14 36° 334° (NNW) 14:40:16 145.827
AUBIESAT-1 08 Feb 14:31:23 14:34:37 35° 59° (ENE) 14:37:44 437.475
ITAMSAT 1 08 Feb 14:34:07 14:39:13 56° 258° (WSW) 14:44:23 435.822/435.867
KKS-1 08 Feb 14:34:37 14:34:57 10° 82° (E) 14:35:17 437.445
VELOX 1 08 Feb 14:37:21 14:39:00 12° 314° (NW) 14:40:38 145.980
GONETS M04 08 Feb 14:44:48 14:47:12 11° 348° (NNW) 14:49:36
HO-68 08 Feb 14:49:03 14:49:33 10° 2° (N) 14:50:04 435.675
SWISSCUBE 08 Feb 14:54:27 14:59:18 76° 105° (ESE) 15:04:07 437.505
HORYU 2 08 Feb 15:04:27 15:08:35 40° 63° (ENE) 15:12:44 437.375
O/OREOS (USA 219) 08 Feb 15:06:06 15:08:30 14° 21° (NNE) 15:10:55 437.305
Cosmos 2499 08 Feb 15:12:23 15:15:54 13° 340° (NNW) 15:19:23 435.465 / 435.565
YUBILEINY 08 Feb 15:14:24 15:23:15 75° 264° (W) 15:32:01 435.215
Cosmos 2491 08 Feb 15:27:57 15:36:23 58° 91° (E) 15:44:51 435.465 / 435.565
SPROUT 08 Feb 15:28:39 15:29:05 10° 314° (NW) 15:29:33 437.525
Gurwin Techsat 1B 08 Feb 15:29:17 15:32:27 16° 276° (W) 15:35:39 435.225
CUSAT 1 08 Feb 15:29:29 15:31:31 12° 292° (WNW) 15:33:25 437.405
ITUPSAT 1 08 Feb 15:30:32 15:35:19 65° 291° (WNW) 15:40:06 437.325
AO-85 08 Feb 15:35:39 15:40:34 32° 357° (N) 15:45:20 145.980
BEESAT 08 Feb 15:40:09 15:44:50 54° 294° (WNW) 15:49:30 436.000
SO-50 08 Feb 15:40:14 15:42:13 12° 251° (WSW) 15:44:12 436.795
TISAT 1 08 Feb 15:42:11 15:44:26 14° 309° (NW) 15:46:41 437.305
BRITE-PL 08 Feb 15:44:29 15:46:32 12° 42° (NE) 15:48:33 437.365/2234.400
DANDE 08 Feb 15:47:31 15:52:11 18° 289° (WNW) 15:56:20 436.750
MOZHAYETS 4 08 Feb 15:50:22 15:54:05 23° 90° (E) 15:57:47
Cosmos 2504 08 Feb 15:52:39 16:01:26 61° 69° (ENE) 16:09:41 435.465 / 435.565
RS-15 08 Feb 15:54:09 16:05:34 60° 344° (NNW) 16:17:36 29.354- 29.394
M-CUBED/EXP-1 PRIME 08 Feb 15:54:55 15:58:05 29° 256° (WSW) 16:01:06 437.505
STARS 08 Feb 15:55:27 15:59:20 30° 95° (E) 16:03:10 437.465
CUTE-I 08 Feb 16:01:40 16:05:43 22° 51° (NE) 16:09:47 437.470
AUBIESAT-1 08 Feb 16:06:15 16:09:19 26° 257° (WSW) 16:12:16 437.475
KKS-1 08 Feb 16:08:04 16:12:30 61° 102° (ESE) 16:16:53 437.445
Cubesat XI-IV 08 Feb 16:14:27 16:18:49 26° 54° (NE) 16:23:13 437.490
PCSat 08 Feb 16:15:35 16:20:04 25° 359° (N) 16:24:33 145.827
ITAMSAT 1 08 Feb 16:18:37 16:19:55 11° 280° (W) 16:21:14 435.822/435.867
AO-7 08 Feb 16:18:51 16:26:36 40° 264° (W) 16:34:24 29.400- 29.500
HO-68 08 Feb 16:30:27 16:34:28 16° 28° (NNE) 16:38:31 435.675
SWISSCUBE 08 Feb 16:32:54 16:36:40 23° 305° (NW) 16:40:26 437.505
HORYU 2 08 Feb 16:41:12 16:45:15 34° 264° (W) 16:49:18 437.375
O/OREOS (USA 219) 08 Feb 16:45:00 16:49:15 36° 45° (NE) 16:53:30 437.305
GONETS M04 08 Feb 16:45:21 16:49:26 14° 24° (NNE) 16:53:30
DOVE 4 08 Feb 16:48:33 16:49:00 10° 44° (NE) 16:49:28 437.250
GOMX 1 08 Feb 16:56:07 16:59:43 19° 53° (NE) 17:03:13 467.674
ITUPSAT 1 08 Feb 17:09:34 17:12:22 16° 312° (NW) 17:15:10 437.325
Cosmos 2499 08 Feb 17:11:35 17:14:17 11° 14° (NNE) 17:16:55 435.465 / 435.565
YUBILEINY 08 Feb 17:12:18 17:18:36 23° 288° (WNW) 17:24:54 435.215
AO-85 08 Feb 17:17:07 17:22:17 41° 21° (NNE) 17:27:10 145.980
BRITE-PL 08 Feb 17:18:32 17:23:48 41° 63° (ENE) 17:28:53 437.365/2234.400
BEESAT 08 Feb 17:19:25 17:21:43 13° 314° (NW) 17:23:59 436.000
LilacSat-2 08 Feb 17:24:21 17:28:04 52° 69° (ENE) 17:31:47 437.200
Cosmos 2491 08 Feb 17:25:11 17:33:33 48° 296° (WNW) 17:41:57 435.465 / 435.565
MOZHAYETS 4 08 Feb 17:27:04 17:31:40 63° 290° (WNW) 17:36:16
STARS 08 Feb 17:31:42 17:35:53 45° 295° (WNW) 17:40:03 437.465
BEESAT 3 08 Feb 17:36:12 17:38:39 16° 116° (ESE) 17:41:06 437.485
CUTE-I 08 Feb 17:39:49 17:45:10 89° 73° (ENE) 17:50:34 437.470
CANX-2 08 Feb 17:42:42 17:44:04 11° 48° (NE) 17:45:26 2200.000
KKS-1 08 Feb 17:45:10 17:48:47 25° 303° (WNW) 17:52:22 437.445
Cosmos 2504 08 Feb 17:46:28 17:54:39 45° 274° (W) 18:02:24 435.465 / 435.565
ISS 08 Feb 17:47:33 17:49:55 19° 153° (SSE) 17:52:16 145.825
CINEMA 3 08 Feb 17:52:23 17:54:03 12° 49° (NE) 17:55:42 145.822/145.860
Cubesat XI-IV 08 Feb 17:53:07 17:58:28 76° 255° (WSW) 18:03:52 437.490
BEESAT 2 08 Feb 17:57:32 18:00:11 17° 116° (ESE) 18:02:50 435.950
PCSat 08 Feb 17:59:56 18:04:56 35° 25° (NNE) 18:09:54 145.827
CUBESAT XI-V 08 Feb 18:03:32 18:08:07 46° 98° (E) 18:12:39 437.345
RS-15 08 Feb 18:08:32 18:20:15 60° 17° (NNE) 18:32:25 29.354- 29.394
STRAND 1 08 Feb 18:10:12 18:11:50 11° 81° (E) 18:13:29 437.568
HO-68 08 Feb 18:13:54 18:20:26 40° 53° (NE) 18:27:00 435.675
DOVE 4 08 Feb 18:20:59 18:25:40 40° 65° (ENE) 18:30:06 437.250
O/OREOS (USA 219) 08 Feb 18:24:25 18:28:50 48° 247° (WSW) 18:33:14 437.305
COMPASS 1 08 Feb 18:29:38 18:32:04 15° 53° (NE) 18:34:30 437.405
CUTE 1.7 + AOD 2 08 Feb 18:31:10 18:34:29 23° 58° (ENE) 18:37:49 437.475
GOMX 1 08 Feb 18:31:49 18:37:11 77° 72° (ENE) 18:42:17 467.674
SEEDS 08 Feb 18:40:11 18:43:25 22° 58° (ENE) 18:46:40 437.485
GONETS M04 08 Feb 18:42:09 18:49:56 33° 55° (NE) 18:57:42
BRITE-PL 08 Feb 18:56:45 19:02:13 48° 262° (W) 19:07:33 437.365/2234.400
AO-85 08 Feb 18:57:55 19:03:19 81° 225° (SW) 19:08:18 145.980
AAUSAT CUBESAT 2 08 Feb 18:58:46 19:01:55 21° 57° (ENE) 19:05:06 437.432
LilacSat-2 08 Feb 18:59:49 19:02:42 20° 269° (W) 19:05:36 437.200
Cosmos 2499 08 Feb 19:04:48 19:11:37 24° 45° (NE) 19:18:07 435.465 / 435.565
MOZHAYETS 4 08 Feb 19:05:35 19:08:03 14° 311° (NW) 19:10:30
ZACube-1 08 Feb 19:10:05 19:11:54 13° 50° (NE) 19:13:42 437.345
STARS 08 Feb 19:10:35 19:11:16 10° 316° (NW) 19:11:57 437.465
BEESAT 3 08 Feb 19:11:50 19:15:50 81° 136° (SE) 19:19:51 437.485
CANX-2 08 Feb 19:14:57 19:19:04 54° 69° (ENE) 19:23:14 2200.000
FUNcube-1 08 Feb 19:19:25 19:21:37 14° 52° (NE) 19:23:50 145.935
CUTE-I 08 Feb 19:22:11 19:25:59 19° 273° (W) 19:29:49 437.470
ISS 08 Feb 19:22:48 19:25:50 37° 172° (S) 19:28:52 145.825
CINEMA 3 08 Feb 19:25:57 19:30:24 55° 69° (ENE) 19:34:41 145.822/145.860
Cosmos 2491 08 Feb 19:27:37 19:33:09 18° 325° (NW) 19:38:44 435.465 / 435.565
BEESAT 2 08 Feb 19:33:29 19:37:32 86° 136° (SE) 19:41:36 435.950
Cubesat XI-IV 08 Feb 19:36:20 19:39:30 16° 276° (W) 19:42:41 437.490
AIST 2 08 Feb 19:41:07 19:44:18 21° 118° (ESE) 19:47:29 435.215
CUBESAT XI-V 08 Feb 19:41:11 19:45:25 33° 299° (WNW) 19:49:37 437.345
Cosmos 2504 08 Feb 19:42:30 19:45:37 12° 299° (WNW) 19:48:40 435.465 / 435.565
CUBEBUG 2 08 Feb 19:42:50 19:46:42 34° 64° (ENE) 19:50:30 437.445
PCSat 08 Feb 19:43:28 19:48:57 89° 228° (SW) 19:54:24 145.827
UWE-3 08 Feb 19:46:46 19:50:25 29° 62° (ENE) 19:54:02 435.000/436.395/437.385
STRAND 1 08 Feb 19:47:02 19:52:10 58° 101° (ESE) 19:57:16 437.568
Oscar 11 08 Feb 19:52:32 19:56:19 31° 62° (ENE) 20:00:08 145.826/435.025
DOVE 4 08 Feb 19:58:41 20:03:25 39° 263° (W) 20:07:55 437.250
HO-68 08 Feb 20:00:43 20:07:52 68° 255° (WSW) 20:15:05 435.675
COMPASS 1 08 Feb 20:02:52 20:07:02 81° 71° (ENE) 20:11:14 437.405
CUTE 1.7 + AOD 2 08 Feb 20:05:51 20:10:02 61° 259° (WSW) 20:14:16 437.475
GOMX 1 08 Feb 20:11:37 20:15:46 22° 271° (W) 20:19:47 467.674
SEEDS 08 Feb 20:14:39 20:18:48 63° 258° (WSW) 20:23:01 437.485
PRISM 08 Feb 20:15:51 20:19:50 39° 98° (E) 20:23:45 437.425
RS-15 08 Feb 20:21:44 20:33:47 83° 227° (SW) 20:46:08 29.354- 29.394
DELFI C3 08 Feb 20:22:54 20:26:29 32° 63° (ENE) 20:30:04 145.870
AAUSAT CUBESAT 2 08 Feb 20:32:58 20:37:04 65° 258° (WSW) 20:41:14 437.432
AIST 1 08 Feb 20:37:09 20:40:18 19° 59° (ENE) 20:43:25
GONETS M04 08 Feb 20:39:04 20:47:54 85° 261° (W) 20:56:44
AO-85 08 Feb 20:39:20 20:43:07 20° 247° (WSW) 20:46:42 145.980
ZACube-1 08 Feb 20:43:20 20:47:28 64° 71° (ENE) 20:51:36 437.345
BEESAT 3 08 Feb 20:50:23 20:53:59 31° 338° (NNW) 20:57:37 437.485
CANX-2 08 Feb 20:51:52 20:55:15 23° 269° (W) 20:58:41 2200.000
FUNcube-1 08 Feb 20:53:04 20:57:15 75° 72° (ENE) 21:01:25 145.935
VELOX 1 08 Feb 20:53:49 20:55:52 13° 48° (NE) 20:57:53 145.980
50 SAT 08 Feb 20:54:38 20:55:24 10° 50° (NE) 20:56:09 437.505
Cosmos 2499 08 Feb 20:57:58 21:06:40 69° 73° (ENE) 21:14:43 435.465 / 435.565
ISS 08 Feb 20:58:55 21:01:55 34° 192° (SSW) 21:04:54 145.825
CINEMA 3 08 Feb 21:04:06 21:07:51 25° 268° (W) 21:11:30 145.822/145.860
AISAT 08 Feb 21:09:13 21:12:05 17° 52° (NE) 21:14:56 437.250
BEESAT 2 08 Feb 21:12:15 21:15:52 31° 339° (NNW) 21:19:30 435.950
HUMSAT D 08 Feb 21:13:38 21:17:32 45° 67° (ENE) 21:21:27 437.325/437.525
AIST 2 08 Feb 21:18:12 21:22:23 81° 317° (NW) 21:26:35 435.215
CUBEBUG 2 08 Feb 21:19:21 21:23:21 37° 263° (W) 21:27:17 437.445
UWE-3 08 Feb 21:22:44 21:26:48 44° 261° (W) 21:30:50 435.000/436.395/437.385
ESTCUBE 1 08 Feb 21:25:02 21:28:32 22° 56° (NE) 21:32:03 437.505/2401.250
STRAND 1 08 Feb 21:26:37 21:31:08 31° 302° (WNW) 21:35:38 437.568
PCSat 08 Feb 21:27:35 21:31:45 23° 249° (WSW) 21:35:53 145.827
Oscar 11 08 Feb 21:28:16 21:32:22 43° 262° (W) 21:36:31 145.826/435.025
UKube-1 08 Feb 21:28:49 21:32:01 21° 55° (NE) 21:35:15 .
CUBEBUG 1 08 Feb 21:32:13 21:35:27 20° 55° (NE) 21:38:41 437.445
Cosmos 2491 08 Feb 21:33:40 21:35:02 10° 359° (N) 21:36:25 435.465 / 435.565
TIGRISAT 08 Feb 21:37:49 21:38:46 11° 83° (E) 21:39:44 435.000
DX 1 08 Feb 21:37:57 21:41:36 26° 58° (ENE) 21:45:17 434.975-435.025
COMPASS 1 08 Feb 21:40:39 21:43:12 16° 273° (W) 21:45:46 437.405
SPROUT 08 Feb 21:42:22 21:43:53 12° 48° (NE) 21:45:23 437.525
PRISM 08 Feb 21:51:21 21:55:08 33° 298° (WNW) 21:58:53 437.425
HO-68 08 Feb 21:52:23 21:57:01 18° 278° (W) 22:01:40 435.675
DELFI C3 08 Feb 21:57:42 22:01:23 36° 263° (W) 22:05:07 145.870
AIST 1 08 Feb 22:14:05 22:18:29 76° 261° (W) 22:22:50
UNISAT 6 08 Feb 22:19:59 22:23:36 25° 93° (E) 22:27:14 437.425
ZACube-1 08 Feb 22:21:10 22:24:13 19° 270° (W) 22:27:15 437.345
50 SAT 08 Feb 22:25:01 22:28:41 59° 70° (ENE) 22:32:23 437.505
VELOX 1 08 Feb 22:27:07 22:31:30 58° 68° (ENE) 22:35:55 145.980
BEESAT 3 08 Feb 22:29:35 22:32:46 22° 1° (N) 22:35:57 437.485
FUNcube-1 08 Feb 22:31:20 22:34:03 17° 272° (W) 22:36:45 145.935
RS-15 08 Feb 22:34:36 22:44:52 35° 253° (WSW) 22:55:19 29.354- 29.394
ISS 08 Feb 22:35:47 22:37:45 15° 211° (SSW) 22:39:44 145.825
GONETS M04 08 Feb 22:36:46 22:43:35 26° 285° (WNW) 22:50:25
AISAT 08 Feb 22:43:28 22:47:58 81° 71° (ENE) 22:52:27 437.250
POLYITAN 1 08 Feb 22:48:30 22:50:55 15° 87° (E) 22:53:18 437.675
QB50P2 08 Feb 22:49:09 22:51:40 15° 87° (E) 22:54:09 145.880/145.840
HUMSAT D 08 Feb 22:49:56 22:53:24 26° 267° (W) 22:56:53 437.325/437.525
BEESAT 2 08 Feb 22:51:34 22:54:49 22° 2° (N) 22:58:01 435.950
Cosmos 2499 08 Feb 22:51:38 22:59:19 38° 278° (W) 23:06:33 435.465 / 435.565
AIST 2 08 Feb 22:57:43 23:01:25 29° 341° (NNW) 23:05:07 435.215
ESTCUBE 1 08 Feb 23:00:25 23:04:57 72° 256° (WSW) 23:09:32 437.505/2401.250
UKube-1 08 Feb 23:03:19 23:07:40 76° 255° (WSW) 23:12:02 .
ANTELSAT 08 Feb 23:04:43 23:08:59 60° 101° (E) 23:13:20 437.575/2403.000
CUBEBUG 1 08 Feb 23:06:50 23:11:17 80° 254° (WSW) 23:15:46 437.445
TIGRISAT 08 Feb 23:12:03 23:16:20 67° 103° (ESE) 23:20:40 435.000
DX 1 08 Feb 23:13:15 23:17:34 55° 258° (WSW) 23:21:55 434.975-435.025
SPROUT 08 Feb 23:14:48 23:19:01 54° 68° (ENE) 23:23:13 437.525
POPSAT HIP 1 08 Feb 23:18:33 23:22:05 25° 93° (E) 23:25:36 437.405
NANOSAT C BR1 08 Feb 23:23:58 23:27:37 28° 94° (E) 23:31:14 145.865
DUCHIFAT 1 08 Feb 23:25:58 23:29:36 28° 94° (E) 23:33:12 145.980
TISAT 1 08 Feb 23:28:52 23:32:42 34° 63° (ENE) 23:36:33 437.305
QB50P1 08 Feb 23:31:10 23:34:59 32° 96° (E) 23:38:47 145.935-145.965
Cosmos 2491 08 Feb 23:31:37 23:36:59 17° 34° (NE) 23:42:21 435.465 / 435.565
ITUPSAT 1 08 Feb 23:32:01 23:34:38 15° 47° (NE) 23:37:15 437.325
BEESAT 08 Feb 23:40:47 23:43:47 17° 49° (NE) 23:46:47 436.000
AIST 1 08 Feb 23:53:38 23:55:18 12° 281° (WNW) 23:56:58
UNISAT 6 08 Feb 23:56:25 00:00:36 51° 293° (WNW) 00:04:49 437.425
50 SAT 09 Feb 00:00:33 00:03:06 17° 270° (W) 00:05:40 437.505
VELOX 1 09 Feb 00:04:41 00:08:20 24° 268° (W) 00:11:59 145.980
BEESAT 3 09 Feb 00:07:50 00:11:31 34° 25° (NNE) 00:15:10 437.485
AISAT 09 Feb 00:22:03 00:25:02 17° 272° (W) 00:28:02 437.250
POLYITAN 1 09 Feb 00:23:07 00:27:22 87° 284° (WNW) 00:31:34 437.675
QB50P2 09 Feb 00:23:50 00:28:06 84° 286° (WNW) 00:32:18 145.880/145.840
BEESAT 2 09 Feb 00:29:56 00:33:41 35° 25° (NNE) 00:37:23 435.950
SWISSCUBE 09 Feb 00:31:07 00:35:29 37° 62° (ENE) 00:39:53 437.505
BUGSAT 1 09 Feb 00:32:31 00:36:36 63° 103° (ESE) 00:40:36 437.445
AIST 2 09 Feb 00:37:35 00:41:00 24° 5° (N) 00:44:24 435.215
ESTCUBE 1 09 Feb 00:40:40 00:42:38 13° 276° (W) 00:44:36 437.505/2401.250
ANTELSAT 09 Feb 00:42:01 00:45:28 24° 302° (WNW) 00:48:57 437.575/2403.000
UKube-1 09 Feb 00:42:40 00:44:31 12° 275° (W) 00:46:23 .
CUBEBUG 1 09 Feb 00:46:08 00:48:21 13° 275° (W) 00:50:34 437.445
TIGRISAT 09 Feb 00:49:25 00:52:42 22° 303° (WNW) 00:56:02 435.000
SPROUT 09 Feb 00:51:48 00:55:18 24° 268° (W) 00:58:49 437.525
POPSAT HIP 1 09 Feb 00:54:04 00:58:08 49° 293° (WNW) 01:02:11 437.405
NANOSAT C BR1 09 Feb 00:59:32 01:03:34 44° 293° (WNW) 01:07:33 145.865
DUCHIFAT 1 09 Feb 01:01:30 01:05:30 44° 294° (WNW) 01:09:29 145.980
TISAT 1 09 Feb 01:04:27 01:08:24 37° 263° (W) 01:12:21 437.305
ITUPSAT 1 09 Feb 01:06:55 01:11:37 61° 68° (ENE) 01:16:23 437.325
QB50P1 09 Feb 01:06:57 01:10:52 38° 296° (WNW) 01:14:46 145.935-145.965
CUSAT 1 09 Feb 01:12:29 01:19:22 32° 84° (E) 01:26:03 437.405
BEESAT 09 Feb 01:16:06 01:20:51 73° 70° (ENE) 01:25:39 436.000
JAS-2 09 Feb 01:21:32 01:26:20 25° 87° (E) 01:30:44 435.910
STARS 09 Feb 01:25:27 01:27:47 14° 49° (NE) 01:30:07 437.465
MOZHAYETS 4 09 Feb 01:25:51 01:27:26 12° 46° (NE) 01:29:02
Cosmos 2491 09 Feb 01:28:23 01:36:44 45° 63° (ENE) 01:45:03 435.465 / 435.565
Oscar 19 09 Feb 01:32:48 01:37:33 36° 95° (E) 01:42:14 437.125/150
UNISAT 6 09 Feb 01:35:15 01:36:27 11° 313° (NW) 01:37:40 437.425
DANDE 09 Feb 01:36:22 01:43:08 31° 81° (E) 01:50:11 436.750
KKS-1 09 Feb 01:37:51 01:41:30 25° 58° (ENE) 01:45:10 437.445
BEESAT 3 09 Feb 01:45:36 01:49:35 69° 227° (SW) 01:53:31 437.485
Gurwin Techsat 1B 09 Feb 01:55:03 01:59:27 25° 91° (E) 02:03:49 435.225
POLYITAN 1 09 Feb 01:59:59 02:02:38 16° 307° (NW) 02:05:17 437.675
QB50P2 09 Feb 02:00:44 02:03:20 16° 307° (NW) 02:05:54 145.880/145.840
BEESAT 2 09 Feb 02:07:51 02:11:51 65° 227° (SW) 02:15:48 435.950
BUGSAT 1 09 Feb 02:08:34 02:11:39 21° 303° (WNW) 02:14:42 437.445
SWISSCUBE 09 Feb 02:08:45 02:13:17 42° 262° (W) 02:17:52 437.505
AIST 2 09 Feb 02:16:27 02:20:26 41° 28° (NNE) 02:24:22 435.215
AO-7 09 Feb 02:20:17 02:23:35 13° 76° (ENE) 02:26:52 29.400- 29.500
YUBILEINY 09 Feb 02:29:37 02:36:52 30° 78° (ENE) 02:44:09 435.215
POPSAT HIP 1 09 Feb 02:32:14 02:33:02 10° 313° (NW) 02:33:49 437.405
ITAMSAT 1 09 Feb 02:39:15 02:43:53 31° 94° (E) 02:48:31 435.822/435.867
ITUPSAT 1 09 Feb 02:45:56 02:49:52 25° 268° (W) 02:53:50 437.325
CUSAT 1 09 Feb 02:52:55 03:01:05 85° 284° (WNW) 03:08:57 437.405
Cosmos 2504 09 Feb 02:54:52 02:56:49 11° 59° (ENE) 02:58:47 435.465 / 435.565
BEESAT 09 Feb 02:55:34 02:59:10 21° 270° (W) 03:02:49 436.000
STARS 09 Feb 02:59:03 03:03:25 67° 70° (ENE) 03:07:49 437.465
MOZHAYETS 4 09 Feb 02:59:14 03:03:38 49° 67° (ENE) 03:08:06
JAS-2 09 Feb 03:06:07 03:12:13 74° 290° (WNW) 03:17:38 435.910
Oscar 19 09 Feb 03:12:07 03:17:03 47° 296° (WNW) 03:21:57 437.125/150
KKS-1 09 Feb 03:13:22 03:17:48 60° 258° (WSW) 03:22:15 437.445
DANDE 09 Feb 03:17:11 03:25:19 90° 304° (NW) 03:33:51 436.750
BEESAT 3 09 Feb 03:24:46 03:26:39 13° 247° (WSW) 03:28:32 437.485
Cosmos 2491 09 Feb 03:25:27 03:34:00 61° 268° (W) 03:42:34 435.465 / 435.565
Gurwin Techsat 1B 09 Feb 03:34:36 03:39:55 69° 291° (WNW) 03:45:12 435.225
CUBESAT XI-V 09 Feb 03:38:18 03:41:49 21° 54° (NE) 03:45:20 437.345
BEESAT 2 09 Feb 03:47:22 03:49:01 12° 247° (WSW) 03:50:39 435.950
AIST 2 09 Feb 03:55:02 03:59:05 53° 230° (SW) 04:03:06 435.215
STRAND 1 09 Feb 03:58:13 03:58:52 10° 38° (NE) 03:59:31 437.568
AO-7 09 Feb 04:10:38 04:18:43 49° 100° (E) 04:26:41 29.400- 29.500
ITAMSAT 1 09 Feb 04:18:32 04:23:40 56° 295° (WNW) 04:28:47 435.822/435.867
YUBILEINY 09 Feb 04:23:55 04:32:45 86° 282° (WNW) 04:41:41 435.215
HORYU 2 09 Feb 04:24:16 04:28:04 27° 94° (E) 04:31:52 437.375
STARS 09 Feb 04:36:57 04:40:15 20° 270° (W) 04:43:34 437.465
MOZHAYETS 4 09 Feb 04:37:05 04:41:03 29° 267° (W) 04:45:05
CUSAT 1 09 Feb 04:37:26 04:44:26 31° 307° (NW) 04:51:06 437.405
Cosmos 2504 09 Feb 04:39:44 04:47:37 40° 83° (E) 04:55:41 435.465 / 435.565
JAS-2 09 Feb 04:52:00 04:56:19 20° 316° (NW) 05:00:20 435.910
Oscar 19 09 Feb 04:53:00 04:55:16 13° 318° (NW) 04:57:33 437.125/150
M-CUBED/EXP-1 PRIME 09 Feb 05:01:02 05:04:15 46° 108° (ESE) 05:07:34 437.505
DANDE 09 Feb 05:02:01 05:09:23 34° 307° (NW) 05:16:52 436.750
AUBIESAT-1 09 Feb 05:11:39 05:14:56 50° 108° (ESE) 05:18:20 437.475
CUBESAT XI-V 09 Feb 05:13:59 05:18:43 82° 256° (WSW) 05:23:29 437.345
Gurwin Techsat 1B 09 Feb 05:15:32 05:19:03 18° 313° (NW) 05:22:34 435.225
Cosmos 2491 09 Feb 05:23:50 05:29:01 18° 292° (WNW) 05:34:13 435.465 / 435.565
STRAND 1 09 Feb 05:32:05 05:36:43 36° 60° (ENE) 05:41:23 437.568
PRISM 09 Feb 05:39:22 05:41:48 15° 51° (NE) 05:44:14 437.425
